Wind_Speed
128 128 128 128 127 127 127 127 126 126 125 125 124 124 124 124 124 125 126 126 127 127 126 125 123 121 118 115 112 110 107 104 102 100 97 95 93 91 89 87 85 83 81 79 77 75 73 71 70 68 67 65 64 62 60 59 58 56 55 54 53 51 50 49 48 47 46 45 44 44 43 42 41 41 40 39 38 37 36 35 34 33 32 31 30 29
128 128 128 128 128 127 127 127 126 126 126 125 125 125 125 125 126 126 127 128 128 127 125 123 121 118 115 112 109 107 104 102 100 97 95 93 91 89 87 85 84 82 80 78 76 74 72 70 68 67 65 64 62 61 59 58 56 55 54 53 51 50 49 48 47 46 45 44 43 43 42 41 40 39 38 38 37 36 35 34 33 32 31 30 29 28
129 129 129 128 128 127 127 127 127 126 126 126 126 125 126 126 127 128 129 128 128 126 124 121 118 115 112 109 107 104 102 100 98 96 94 92 90 88 86 84 82 81 79 77 75 73 71 69 67 65 64 63 61 59 58 56 55 54 52 51 50 49 48 47 46 44 44 43 42 41 41 40 39 38 37 37 36 35 34 33 32 31 30 29 28 27
130 129 129 128 127 127 127 127 127 127 127 127 126 127 127 128 129 129 129 128 126 124 121 118 115 112 109 107 104 102 100 98 96 94 92 90 88 86 84 83 81 79 77 76 74 72 70 68 66 64 63 61 60 58 56 55 54 52 51 50 49 48 46 45 44 43 42 42 41 40 39 39 38 37 36 36 35 34 33 32 31 30 29 28 27 26
130 129 128 128 127 127 128 128 128 128 128 128 128 128 129 129 130 130 128 126 124 121 118 115 112 109 107 104 102 100 98 96 94 92 90 88 87 85 83 81 80 78 76 74 72 70 68 66 64 63 61 60 58 56 55 53 52 51 50 48 47 46 45 44 43 42 41 40 40 39 38 38 37 36 36 35 34 33 32 31 30 30 29 28 26 25
130 129 128 128 128 128 128 129 129 129 129 129 129 130 130 130 130 129 127 124 121 118 115 112 109 107 104 102 100 98 96 94 92 91 89 87 85 83 81 80 78 76 74 73 71 69 67 65 63 61 59 58 56 55 53 52 50 49 48 47 46 44 43 42 41 41 40 39 39 38 37 37 36 35 35 34 33 32 31 31 30 29 28 27 26 25
130 129 128 128 128 129 129 130 130 130 130 130 131 131 131 130 129 127 124 121 118 115 112 109 107 105 102 100 98 96 95 93 91 89 87 85 83 82 80 78 76 74 73 71 69 67 65 63 61 59 58 56 54 53 51 50 49 47 46 45 44 43 42 41 40 39 39 38 37 37 36 36 35 34 34 33 32 31 31 30 29 28 27 26 26 25
129 129 129 129 130 130 131 131 131 131 131 131 132 132 131 129 127 124 121 118 115 112 109 107 105 103 101 99 97 95 93 91 89 87 86 83 82 80 78 76 74 72 71 69 67 65 63 61 59 57 56 54 52 51 49 48 47 46 44 43 42 41 40 39 38 38 37 37 36 36 35 35 34 33 33 32 32 31 30 29 28 28 27 26 25 24
130 130 130 130 131 132 132 132 132 132 132 132 132 131 130 127 125 121 118 115 112 109 107 105 103 101 99 97 95 93 91 90 88 86 84 82 80 78 76 74 72 70 68 66 64 62 60 59 57 55 53 52 50 49 47 46 45 44 43 41 40 39 38 38 37 37 36 36 35 35 34 34 33 33 32 31 31 30 29 29 28 27 27 26 25 24
131 131 132 132 133 133 133 133 133 133 133 132 131 129 127 124 121 118 115 112 110 107 105 103 101 99 97 96 93 91 90 88 86 84 82 80 78 75 74 71 70 68 66 64 62 60 58 56 55 53 51 50 48 47 45 44 43 42 41 40 39 38 37 37 36 36 35 35 35 34 34 33 32 32 31 31 30 29 29 28 28 27 26 26 25 25
132 133 133 134 134 134 134 134 134 134 133 132 130 127 124 121 118 115 112 110 108 105 103 101 99 97 96 94 92 90 88 86 84 82 80 77 75 73 71 69 67 65 63 61 59 57 56 54 52 51 49 47 46 45 43 42 41 40 39 38 37 36 36 35 35 35 34 34 34 33 33 32 32 31 31 30 29 29 28 28 27 27 26 26 25 25
134 135 135 135 135 135 135 135 134 134 132 130 128 125 121 118 115 112 109 107 105 103 101 99 98 96 94 92 90 88 85 83 81 79 77 75 72 70 68 66 64 62 60 58 57 55 53 51 50 48 47 45 44 43 42 40 39 38 37 37 36 35 35 34 34 34 34 33 33 33 32 32 31 31 30 30 29 28 28 28 27 27 26 26 26 25
135 136 136 136 136 136 135 135 134 133 131 128 125 122 118 115 112 109 107 105 103 101 99 97 96 94 92 90 87 85 83 81 79 76 74 72 69 67 65 63 61 59 57 56 54 52 50 49 47 46 45 43 42 41 40 39 38 37 36 35 35 34 34 33 33 33 33 33 32 32 31 31 31 30 30 29 29 28 28 27 27 27 26 26 26 26
136 136 136 136 136 136 135 134 133 131 129 125 122 118 115 112 109 107 105 103 101 99 97 95 94 92 90 87 85 82 80 78 75 73 71 68 66 64 62 60 58 57 55 53 51 50 48 46 45 44 42 41 40 39 38 37 36 35 35 34 34 33 33 33 32 32 32 32 32 31 31 30 30 30 29 29 28 28 27 27 27 27 27 26 26 26
137 136 136 136 136 135 134 133 131 128 125 122 118 115 112 109 107 105 103 101 99 97 95 94 92 90 87 85 82 79 77 74 72 69 67 65 63 61 59 57 55 54 52 50 48 47 46 44 43 42 41 39 38 37 36 35 35 34 33 33 33 32 32 32 32 32 32 31 31 31 30 30 30 29 29 28 28 28 27 27 27 27 27 27 27 26
136 136 136 136 135 134 133 131 128 125 121 118 115 112 109 107 105 102 100 99 97 95 93 91 89 87 84 82 79 76 73 70 68 66 64 62 60 58 56 54 52 51 49 47 46 45 43 42 41 40 39 38 37 36 35 34 33 33 32 32 32 31 31 31 31 31 31 31 30 30 30 30 29 29 29 28 28 28 27 27 27 27 27 27 27 27
136 136 135 135 134 132 130 128 124 121 118 115 112 109 107 104 102 100 98 96 95 93 91 88 86 83 81 78 75 72 69 67 64 63 61 59 57 55 53 51 49 48 47 45 44 42 41 40 39 38 37 36 35 34 33 33 32 32 32 31 31 31 31 31 30 30 30 30 30 30 29 29 29 29 28 28 28 28 27 27 27 27 28 28 27 27
135 135 134 133 132 129 127 124 121 117 115 112 109 107 104 102 100 98 96 94 92 90 88 85 82 79 76 74 71 69 66 63 61 59 58 56 54 52 50 48 47 45 44 43 42 40 39 38 37 36 35 34 34 33 32 32 31 31 31 30 30 30 30 30 30 30 30 30 29 29 29 29 29 28 28 28 28 28 27 27 28 28 28 28 28 28
135 134 132 130 128 126 123 120 117 114 111 109 107 104 102 99 97 95 93 91 89 86 84 81 78 76 73 70 67 65 62 60 58 57 55 53 51 50 48 46 44 43 42 41 40 38 37 36 35 35 34 33 32 32 32 31 31 31 30 30 30 30 30 30 29 29 29 29 29 29 29 28 28 28 28 28 28 28 28 28 28 28 28 28 28 28
133 132 130 127 124 122 119 116 114 111 108 106 104 101 99 97 95 92 90 88 85 83 80 77 74 72 69 66 64 62 59 57 55 54 52 51 49 47 45 44 42 41 40 39 38 37 35 35 34 33 33 32 32 31 31 31 30 30 30 30 29 29 29 29 29 29 29 29 29 29 28 28 28 28 28 28 28 28 28 28 28 28 28 28 28 28
131 129 126 123 120 117 115 113 110 108 106 103 101 98 96 94 92 89 87 84 81 79 76 73 70 68 65 63 61 59 57 55 53 51 50 48 47 45 43 42 40 39 38 37 36 35 34 33 33 32 32 31 31 31 30 30 30 30 30 29 29 29 29 29 29 29 28 28 28 28 28 28 28 28 28 28 28 28 28 28 28 28 28 28 29 29
127 125 122 119 116 113 111 109 107 105 103 100 98 95 93 90 88 85 83 80 77 75 72 69 67 64 62 60 58 56 54 52 50 49 47 46 44 43 41 40 38 38 37 36 35 34 33 32 32 31 31 31 31 31 30 30 30 30 29 29 29 29 29 29 28 28 28 28 28 28 28 28 28 28 28 28 28 28 28 28 28 28 28 28 29 29
123 120 118 115 113 110 108 106 104 102 100 97 95 92 89 86 84 81 79 76 73 71 68 66 63 61 59 58 56 54 52 50 48 46 45 44 42 41 40 38 37 36 35 34 33 33 32 31 31 31 31 31 31 30 30 30 30 30 29 29 29 29 29 28 28 28 28 28 28 28 28 28 28 28 28 28 28 28 28 28 28 28 28 29 29 29
119 116 114 111 109 107 105 102 100 98 96 94 91 88 86 83 80 77 75 72 70 67 65 63 61 59 57 55 53 51 49 47 46 44 43 42 41 39 38 37 36 35 34 34 33 32 31 31 31 31 31 31 30 30 30 30 30 30 30 29 29 29 29 29 28 28 28 28 28 27 27 28 28 28 28 28 28 28 28 28 28 28 29 29 29 29
115 112 110 108 105 103 101 99 97 95 92 90 87 84 81 78 76 73 71 69 66 64 62 60 58 57 55 53 51 49 48 46 44 43 41 40 39 38 37 36 35 34 33 33 32 32 31 31 31 31 31 31 30 30 30 30 30 30 30 30 29 29 29 29 28 28 28 28 27 27 27 27 28 28 28 28 28 28 29 29 29 29 29 29 29 29
111 109 106 104 102 100 98 96 94 91 89 86 83 80 77 74 72 70 68 65 63 61 59 57 56 55 53 51 49 47 46 44 43 41 40 39 38 37 36 35 34 33 33 33 32 32 31 31 31 31 31 31 31 30 30 30 30 30 30 30 30 29 29 29 29 28 28 28 28 27 27 27 28 28 28 28 29 29 29 29 29 29 29 29 29 30
108 105 103 100 98 96 94 92 90 87 84 81 79 76 73 70 68 66 64 62 60 58 56 55 54 52 51 49 48 46 44 42 41 40 39 38 37 36 35 34 34 33 33 32 32 32 32 32 31 31 31 31 31 31 31 31 31 30 31 30 30 30 30 29 29 29 28 28 28 28 28 28 28 28 28 29 29 29 29 30 30 30 30 30 30 30
104 102 99 97 95 93 90 88 85 83 80 77 75 72 69 67 65 64 62 60 58 56 54 53 52 50 49 48 46 44 43 41 40 39 38 37 36 36 35 34 34 33 33 33 32 32 32 32 32 32 32 31 31 31 31 31 31 31 31 31 31 30 30 30 30 29 29 29 28 28 28 28 28 28 28 29 29 29 30 30 30 30 30 30 30 31
100 98 96 94 91 89 86 84 81 79 76 73 71 68 66 64 62 61 60 58 56 54 53 51 50 49 47 46 45 43 42 40 39 38 38 37 36 36 35 34 34 33 33 33 33 33 33 33 32 32 32 32 32 32 32 32 32 32 32 31 31 31 31 30 30 30 30 29 29 29 29 29 29 29 29 29 29 29 30 30 31 31 31 31 31 31
97 95 93 90 87 84 82 79 77 75 72 70 67 65 63 62 60 59 57 56 54 53 51 50 48 47 46 45 44 42 41 40 39 38 37 37 36 36 35 35 34 34 34 34 34 34 34 33 33 33 33 33 32 32 32 32 32 32 32 32 32 32 31 31 31 31 30 30 30 30 29 29 29 29 29 29 29 30 30 30 31 31 32 32 32 32
94 91 89 86 83 80 78 75 73 71 69 67 64 63 61 59 58 56 55 54 53 51 50 48 47 46 45 44 43 42 41 40 39 38 37 37 37 36 36 35 35 35 35 34 34 34 34 34 34 33 33 33 33 33 33 33 33 33 33 33 33 32 32 32 32 31 31 31 31 31 30 30 30 30 30 30 30 30 30 31 31 31 32 33 33 33
90 87 85 82 79 76 74 71 69 67 66 64 62 60 59 57 56 54 53 52 51 50 49 47 46 45 44 43 42 41 41 40 39 38 38 37 37 37 36 36 36 35 35 35 35 35 35 35 34 34 34 34 34 34 34 34 34 34 34 34 34 33 33 33 33 32 32 32 32 31 31 31 31 31 31 31 31 31 31 31 31 32 32 33 33 34
86 83 81 78 75 73 70 68 66 65 63 62 60 58 57 55 54 52 51 50 49 48 47 46 45 44 43 42 42 41 41 40 40 39 38 38 38 37 37 37 36 36 36 36 36 36 36 35 35 35 34 34 34 34 34 34 34 35 34 34 34 34 34 34 34 33 33 33 33 32 32 32 32 32 31 32 31 31 31 32 32 32 32 33 34 34
81 79 76 74 72 69 67 66 64 62 61 60 58 57 55 54 52 51 50 49 48 47 46 46 45 44 43 42 42 41 41 41 40 39 39 38 38 38 38 37 37 37 37 36 36 36 36 36 36 35 35 35 35 35 35 35 35 35 35 35 35 35 35 35 35 35 34 34 34 33 33 33 33 33 32 32 32 32 32 32 32 33 33 33 34 34
77 75 73 71 69 67 65 63 62 60 59 58 57 55 54 52 51 50 49 48 47 46 46 45 44 43 43 42 42 41 41 41 40 40 39 39 39 38 38 38 38 37 37 37 37 37 36 36 36 36 36 36 36 36 36 36 36 36 36 36 36 36 36 36 36 36 35 35 35 35 34 34 34 33 33 33 33 33 33 33 33 33 33 34 34 35
73 71 69 68 67 65 64 62 60 59 57 56 55 54 52 51 50 49 48 47 46 45 45 44 44 43 43 42 42 41 41 41 40 39 39 39 39 38 38 38 38 38 38 38 37 37 37 37 37 37 37 37 37 37 37 37 37 37 37 37 37 37 37 37 37 37 37 36 36 36 35 35 35 34 34 34 34 34 34 34 34 34 34 34 35 35
69 68 67 66 65 64 62 61 59 58 56 55 54 53 51 50 49 48 47 46 45 45 44 44 43 43 43 42 42 41 41 40 40 39 39 39 38 38 38 39 38 38 38 38 38 37 37 37 37 37 37 38 38 38 38 38 38 38 38 38 38 38 38 38 38 38 38 38 37 37 36 36 36 35 35 35 35 35 35 35 35 35 35 35 35 36
67 66 64 64 63 62 61 60 58 57 55 54 53 52 51 50 49 48 46 45 45 44 44 43 43 43 42 42 41 41 40 40 39 39 39 38 38 39 39 39 39 39 38 38 38 38 38 38 38 38 39 39 39 39 39 39 39 39 39 39 39 39 40 39 39 39 39 39 38 38 37 37 37 36 36 36 36 36 36 36 36 36 36 36 36 36
65 64 63 62 61 60 60 59 58 56 55 53 52 51 50 49 48 47 46 45 44 44 43 43 43 42 42 42 41 41 40 40 39 39 39 38 38 39 39 39 39 39 39 39 39 38 38 39 39 39 40 40 40 40 40 40 41 41 41 41 41 41 41 40 40 40 40 39 39 39 39 38 38 38 37 37 37 37 37 37 37 37 37 37 37 37
64 63 62 61 60 59 58 57 56 55 54 53 52 50 49 48 48 47 46 45 44 43 43 43 42 42 42 41 41 40 40 40 39 39 39 39 39 39 39 39 39 40 39 39 39 39 39 40 40 40 41 41 41 41 41 41 42 42 42 42 42 42 42 42 41 41 41 40 40 40 40 39 39 39 39 38 38 38 38 38 38 38 37 37 38 38
64 63 61 60 59 58 57 56 55 55 54 53 51 50 49 48 47 46 46 45 44 43 43 43 42 42 42 41 41 41 40 40 39 39 39 39 39 39 39 39 40 40 40 40 40 40 40 41 41 41 42 42 42 42 43 43 43 43 43 43 43 43 43 43 42 42 42 41 41 41 41 41 40 40 40 40 39 39 39 39 39 39 39 38 39 39
63 62 61 60 58 57 56 55 54 54 53 52 51 50 49 48 47 46 45 45 44 44 43 43 42 42 42 42 41 41 40 40 40 39 39 39 39 39 39 40 40 40 41 41 41 41 41 42 42 42 43 43 43 43 44 44 44 44 44 44 44 44 44 44 43 43 43 43 42 42 42 42 42 41 41 41 40 40 40 40 40 40 40 40 40 40
63 62 61 60 59 57 56 55 54 53 52 52 51 50 49 48 47 46 45 44 44 43 43 43 42 42 42 42 42 41 41 40 40 40 40 40 40 40 40 40 41 41 41 42 42 42 43 43 43 43 44 44 44 45 45 45 45 45 45 45 45 45 45 45 45 44 44 44 43 43 43 43 43 42 42 42 42 41 41 41 41 41 41 41 41 41
63 62 61 60 59 58 57 55 54 53 52 51 51 50 49 48 47 46 45 44 44 43 43 43 42 42 42 42 42 42 41 41 40 40 40 40 40 40 41 41 41 42 42 43 43 43 44 44 44 45 45 45 46 46 46 47 47 46 46 46 46 46 46 46 46 45 45 45 44 44 44 44 44 44 43 43 43 42 42 42 42 42 42 42 42 42
63 62 61 60 59 58 57 56 55 54 53 52 51 50 50 49 48 47 46 45 44 44 43 43 42 42 42 42 42 42 42 41 41 41 41 41 41 41 41 42 42 42 43 43 44 44 45 45 46 46 46 47 47 47 48 48 48 47 47 47 47 47 47 47 46 46 46 46 46 46 46 46 45 45 45 44 44 44 44 43 43 43 43 43 43 43
63 62 61 60 59 58 57 56 55 54 53 53 52 51 50 49 48 47 46 46 45 44 44 43 43 43 43 43 42 42 42 42 42 42 41 41 42 42 42 43 43 43 44 44 45 45 46 46 47 47 48 48 48 49 49 49 48 48 48 48 48 48 48 47 47 47 47 47 47 47 47 47 47 46 46 46 45 45 45 45 44 44 44 44 44 44
63 62 61 60 59 58 57 57 56 55 54 54 53 52 51 50 49 48 47 46 46 45 44 44 43 43 43 43 43 43 43 43 43 43 42 42 42 43 43 43 44 44 45 45 46 46 47 47 48 48 49 49 50 50 50 49 49 49 49 49 48 48 49 48 48 48 48 48 49 49 49 48 48 48 47 47 47 46 46 46 46 45 45 45 45 45
63 62 61 60 59 58 58 57 56 56 55 54 54 53 52 51 50 49 48 47 47 46 45 45 44 44 44 43 43 43 43 43 43 43 43 43 43 43 44 44 45 45 46 46 47 48 48 49 49 49 50 50 51 51 51 50 50 49 49 49 49 49 49 49 49 49 50 50 50 50 50 50 49 49 48 48 48 48 48 47 47 47 46 46 46 46
63 62 61 60 60 59 58 58 57 56 56 55 55 54 53 53 52 51 50 49 48 47 46 46 45 45 45 44 44 44 44 44 44 44 44 44 44 44 45 45 46 46 47 47 48 49 49 50 50 51 51 51 51 52 51 51 50 50 50 50 50 50 50 51 51 51 51 51 52 52 51 51 51 50 50 50 50 50 49 49 48 48 48 47 47 48
62 62 61 61 60 59 59 58 58 57 57 56 55 55 54 54 53 52 52 51 50 49 48 47 47 46 46 45 45 45 45 45 45 45 45 45 45 45 45 46 46 47 47 48 49 50 50 51 52 52 52 52 52 52 52 51 51 50 50 51 51 51 52 52 52 52 53 53 53 53 53 52 52 51 51 51 51 51 51 50 50 49 49 49 49 49
62 62 61 61 60 60 59 59 58 58 58 57 57 56 55 55 54 54 53 53 52 51 50 49 49 48 47 47 47 46 46 46 46 46 46 46 46 46 46 46 47 47 48 49 50 51 51 52 53 53 53 53 52 52 52 52 52 52 52 52 52 52 53 53 54 54 54 54 54 54 54 53 53 53 52 52 53 53 52 52 51 50 50 50 50 50
Wind_Direction
302 303 303 303 304 304 304 304 305 305 305 306 306 306 307 307 307 308 308 308 308 308 308 307 307 307 307 306 306 306 306 305 305 305 305 305 304 304 304 304 303 303 303 302 302 302 302 301 301 300 300 300 299 299 298 298 297 297 296 296 295 294 294 294 293 293 293 293 293 293 293 293 294 294 294 294 294 294 294 293 293 292 292 291 291 291
302 303 303 303 303 304 304 304 305 305 305 306 306 306 307 307 307 307 308 308 307 307 307 307 307 306 306 306 305 305 305 305 305 304 304 304 304 303 303 303 302 302 302 302 301 301 301 300 300 299 299 298 298 298 297 297 296 296 295 294 294 293 293 293 292 292 292 292 292 292 292 293 293 293 293 293 293 293 293 292 292 291 290 290 290 289
302 302 303 303 303 303 304 304 305 305 305 305 306 306 306 307 307 307 307 307 307 307 306 306 306 305 305 305 305 305 304 304 304 304 304 303 303 303 302 302 301 301 301 301 300 300 300 299 299 298 298 297 297 297 296 295 295 294 294 293 292 292 292 291 291 291 291 291 291 291 291 292 292 292 292 292 292 292 291 291 290 290 289 289 288 288
302 302 302 303 303 303 304 304 304 305 305 305 306 306 306 307 307 307 307 307 306 306 306 305 305 305 305 304 304 304 304 304 303 303 303 302 302 302 301 301 301 300 300 300 299 299 299 298 298 297 297 296 296 295 295 294 294 293 292 292 291 291 290 290 290 290 290 290 290 290 291 291 291 291 291 291 291 291 290 289 289 288 288 287 287 287
302 302 302 302 303 303 303 304 304 305 305 305 306 306 306 307 307 307 306 306 306 305 305 305 304 304 304 304 304 303 303 303 303 302 302 302 301 301 300 300 300 299 299 299 298 298 298 297 297 296 296 295 295 294 293 293 292 291 291 290 290 289 289 289 289 289 289 289 289 289 289 290 290 290 290 290 290 289 289 288 287 287 286 286 285 285
301 302 302 302 302 303 303 304 304 305 305 305 306 306 306 306 306 306 306 306 305 305 304 304 304 304 303 303 303 303 303 302 302 302 301 301 300 300 299 299 299 298 298 298 297 297 297 296 296 295 294 294 293 293 292 291 290 290 289 289 288 288 288 287 287 287 287 287 288 288 288 289 289 289 289 289 288 288 287 286 286 285 284 284 284 283
301 301 302 302 302 303 303 304 304 304 305 305 306 306 306 306 306 306 305 305 304 304 304 303 303 303 303 303 303 302 302 302 301 301 300 300 299 299 298 298 298 297 297 297 296 296 295 295 294 294 293 293 292 291 290 290 289 288 288 287 287 286 286 286 286 286 286 286 287 287 287 287 288 288 287 287 287 286 285 285 284 283 283 282 282 281
301 301 301 302 302 303 303 303 304 304 305 305 306 306 306 306 306 305 305 304 304 303 303 303 303 303 302 302 302 302 301 301 300 300 300 299 299 298 298 297 297 296 296 296 295 295 294 294 293 293 292 291 290 290 289 288 287 287 286 286 285 285 285 285 284 285 285 285 285 286 286 286 286 286 286 286 285 285 284 283 283 282 281 281 280 280
300 301 301 302 302 302 303 303 304 304 305 305 305 305 305 305 305 304 304 303 303 303 303 302 302 302 302 302 301 301 300 300 299 299 299 298 298 297 297 296 296 295 295 295 294 294 293 292 292 291 290 290 289 288 287 286 285 285 284 284 284 283 283 283 283 283 283 284 284 285 285 285 285 285 285 284 284 283 283 282 281 281 280 279 279 278
300 300 301 301 302 302 303 303 304 304 305 305 305 305 305 304 304 303 303 303 302 302 302 302 301 301 301 301 300 300 300 299 299 298 298 297 297 296 296 295 295 294 294 293 293 292 292 291 290 290 289 288 287 286 285 284 283 283 283 282 282 282 281 281 281 282 282 282 283 283 284 284 284 284 283 283 283 282 281 281 280 279 279 278 277 277
300 300 301 301 302 302 303 303 304 304 305 305 305 305 304 304 303 303 302 302 302 302 301 301 301 300 300 300 300 299 299 298 298 297 297 296 296 295 295 294 294 293 293 292 292 291 290 290 289 288 287 286 285 284 283 282 282 281 281 280 280 280 280 280 280 280 281 281 282 282 282 283 283 282 282 282 281 280 280 279 278 278 277 276 276 275
300 300 301 301 302 302 303 303 304 304 305 305 304 304 303 303 303 302 301 301 301 301 301 300 300 300 299 299 299 299 298 298 297 297 296 296 295 294 294 293 293 292 292 291 290 290 289 288 287 286 285 284 283 282 281 280 280 279 279 278 278 278 278 278 279 279 279 280 281 281 281 281 281 281 281 280 280 279 279 278 277 276 275 275 274 273
300 300 301 301 302 302 303 303 304 304 304 304 303 303 302 302 302 301 301 301 300 300 300 300 299 299 299 299 298 298 298 297 296 296 295 295 294 294 293 292 292 291 290 290 289 288 287 287 286 284 283 282 281 280 279 278 278 277 277 277 276 276 276 277 277 278 278 279 280 280 280 280 280 280 280 279 279 278 277 276 275 275 274 273 272 271
300 300 301 301 302 302 303 303 303 303 303 303 303 302 302 301 301 301 300 300 300 300 299 299 299 299 299 298 298 297 297 296 296 295 295 294 293 293 292 291 291 290 289 289 288 287 286 285 284 283 281 280 279 278 277 276 275 275 275 274 275 275 275 275 276 276 277 278 279 279 279 280 279 279 279 278 278 277 276 275 274 273 272 272 271 270
300 300 301 301 302 302 303 303 303 303 302 302 302 301 301 301 300 300 300 299 299 299 299 299 298 298 298 298 297 297 296 296 295 294 294 293 292 292 291 290 290 289 288 287 286 285 284 283 282 280 279 278 277 276 275 274 273 273 272 273 273 273 273 274 275 276 276 277 278 278 278 279 279 278 278 278 277 276 275 274 273 272 271 270 269 269
300 300 301 301 302 302 302 302 302 302 301 301 301 300 300 300 300 299 299 299 299 299 298 298 298 298 298 297 297 296 295 295 294 293 293 292 291 291 290 289 288 288 287 286 284 283 282 281 280 278 277 276 274 273 272 271 271 271 270 270 271 271 272 272 273 274 275 276 277 278 278 278 278 278 277 277 276 276 275 273 272 271 270 269 269 268
300 300 301 301 301 302 302 302 301 301 300 300 300 300 300 299 299 299 299 299 298 298 298 298 298 297 297 297 296 295 295 294 293 292 291 291 290 290 289 288 287 286 285 284 283 281 280 279 277 276 274 273 272 271 270 269 269 268 268 269 269 270 270 271 272 274 274 275 276 277 277 277 277 277 277 276 276 275 274 273 272 271 269 269 268 267
300 300 301 301 301 301 301 301 300 300 300 299 299 299 299 299 299 299 298 298 298 298 298 298 297 297 296 296 295 295 294 293 292 291 290 290 289 288 288 287 285 284 283 282 280 279 278 276 274 273 271 270 269 268 267 267 267 267 267 267 267 268 269 270 271 273 274 275 275 276 276 277 277 277 276 276 275 274 273 272 271 270 269 268 267 267
300 300 300 300 300 300 300 299 299 299 299 299 299 299 299 299 299 298 298 298 298 298 297 297 297 296 296 295 294 294 293 292 291 290 289 289 288 287 286 285 284 283 281 280 278 277 275 273 272 270 269 267 266 266 265 265 265 265 265 265 266 267 268 269 271 272 273 274 275 275 276 276 276 276 276 275 275 274 273 272 271 270 269 268 267 267
300 300 300 300 299 299 299 299 298 298 298 298 298 298 298 298 298 298 298 298 298 297 297 297 296 295 295 294 293 293 292 291 290 289 288 288 287 286 285 283 282 281 279 277 276 274 272 270 269 267 266 265 264 263 263 263 263 263 263 264 265 266 267 268 270 271 272 274 274 275 276 276 276 276 275 275 274 274 273 272 271 270 268 268 267 266
299 299 299 299 298 298 298 298 298 298 298 298 298 298 298 298 298 298 298 297 297 297 297 296 295 295 294 293 292 291 291 290 289 288 287 287 286 284 283 282 280 278 277 275 273 271 269 267 266 264 263 262 262 261 261 261 261 261 262 262 264 265 266 268 269 271 272 273 274 275 275 275 276 275 275 275 274 274 273 272 271 270 269 268 267 267
298 298 298 298 297 297 297 297 297 297 297 298 298 298 298 298 298 298 297 297 297 296 296 295 294 294 293 292 291 290 290 289 288 287 286 285 284 283 281 280 278 276 274 272 270 268 266 264 263 261 260 260 259 259 259 259 259 260 260 261 263 264 266 267 269 270 271 273 274 274 275 275 275 275 275 275 274 274 273 272 271 270 269 268 267 267
297 297 297 297 297 297 296 297 297 297 297 298 298 298 298 298 297 297 297 297 296 296 295 294 294 293 292 291 290 290 289 288 287 285 284 283 282 281 279 277 275 273 271 269 267 265 263 261 259 259 258 258 258 258 258 258 258 258 259 260 262 263 265 266 268 269 271 272 273 274 275 275 276 275 275 275 274 274 273 272 271 270 269 269 268 267
296 296 296 296 296 296 296 296 297 297 297 297 298 298 298 297 297 297 296 296 296 295 295 294 293 292 291 290 290 289 288 286 285 284 283 282 280 279 277 275 273 270 268 266 264 262 260 258 257 256 256 256 256 256 256 256 257 257 258 260 261 263 264 265 267 269 270 272 273 274 275 275 275 275 275 275 274 273 273 272 271 270 270 269 268 267
296 295 295 295 296 296 296 296 296 297 297 297 297 297 297 297 297 296 296 295 295 295 294 293 292 291 290 289 289 287 286 285 284 282 281 280 279 277 274 272 270 267 265 263 261 259 257 256 255 255 254 254 254 255 255 255 256 257 258 259 260 262 264 265 266 268 270 271 272 273 275 275 275 275 275 275 274 273 273 272 271 271 270 269 269 268
295 295 295 295 295 296 296 296 296 297 297 297 297 297 297 296 296 296 295 295 294 294 293 292 291 290 289 288 287 286 285 284 282 281 279 278 276 274 272 269 267 264 262 260 258 256 255 254 253 253 253 253 253 253 254 254 255 256 257 259 260 262 263 265 266 267 269 270 272 273 274 275 275 275 275 275 274 273 272 272 271 270 270 269 269 268
294 294 295 295 295 295 296 296 296 296 296 297 296 296 296 296 295 295 294 294 294 293 292 291 290 289 288 287 286 284 283 282 280 279 277 275 274 271 269 266 264 261 259 257 255 254 253 252 252 252 252 252 252 252 252 253 254 255 257 258 260 261 263 264 265 267 268 270 271 273 274 274 275 275 275 275 274 273 273 272 271 270 270 269 268 268
294 294 294 295 295 295 296 296 296 296 296 296 296 296 295 295 295 294 294 293 293 292 291 290 288 287 286 285 284 283 282 280 278 276 274 273 271 268 266 264 261 259 257 255 254 253 252 251 251 251 251 251 251 251 252 253 254 255 256 258 259 261 262 264 265 266 268 269 271 272 273 274 275 275 275 275 275 274 273 272 271 270 269 269 268 267
294 294 294 295 295 295 295 295 295 295 295 295 295 295 295 295 294 294 293 293 292 291 290 289 287 286 285 283 282 281 279 277 275 273 272 269 267 265 264 261 258 256 255 253 252 252 251 250 251 251 251 251 251 251 251 252 253 255 256 258 259 260 262 263 264 266 267 269 270 271 273 274 275 275 276 275 275 274 273 273 271 270 269 268 268 267
294 294 294 295 295 295 295 295 295 295 295 295 295 295 294 294 294 294 293 292 292 291 289 288 286 285 283 282 280 279 277 275 273 271 269 266 264 263 261 259 256 254 253 252 250 250 250 250 250 250 250 250 250 250 251 252 253 254 256 257 259 260 261 262 264 265 267 268 270 271 272 273 275 275 276 276 276 275 275 273 272 271 270 269 268 267
294 294 294 294 294 294 294 294 294 294 294 294 294 294 294 294 293 293 292 292 291 290 289 287 285 283 281 280 278 276 275 273 271 268 266 264 262 261 259 256 255 253 252 251 249 249 250 249 250 250 250 250 250 250 251 252 253 254 256 257 258 259 261 262 263 264 266 267 269 270 272 273 275 275 276 276 276 276 275 275 274 272 271 270 269 268
293 294 294 294 294 294 294 293 293 293 294 294 294 294 294 293 293 293 292 291 290 289 288 286 284 282 280 278 276 275 273 271 269 267 264 262 261 259 258 255 254 253 252 250 250 249 249 249 249 250 249 249 250 250 251 252 253 254 255 257 258 259 260 261 263 264 265 267 268 270 271 273 274 275 276 277 277 277 276 276 275 274 273 271 270 269
293 293 293 293 293 293 293 293 293 293 293 293 293 293 293 293 293 292 291 290 289 288 287 285 283 281 279 277 275 273 271 269 267 265 264 261 260 258 256 255 253 252 251 250 250 249 249 249 249 249 249 249 249 250 251 252 253 254 255 257 258 259 260 261 262 263 265 266 267 269 271 272 274 275 276 277 277 277 277 277 276 276 275 273 272 270
293 293 293 293 293 292 292 292 292 292 293 293 293 293 293 293 292 292 291 290 288 287 285 284 282 280 278 276 274 272 270 269 267 265 263 261 259 258 256 254 252 251 251 250 249 249 248 248 248 248 248 249 249 250 250 252 253 254 255 256 257 259 260 260 261 263 264 265 267 268 270 272 273 275 276 277 277 278 278 278 278 277 276 275 274 272
292 292 292 292 292 292 292 292 292 292 292 292 293 293 293 292 292 291 290 289 287 286 284 283 281 279 277 275 273 272 270 269 267 266 264 262 260 258 256 254 253 252 251 250 249 248 247 247 247 247 247 248 249 249 250 252 253 254 255 256 257 258 259 260 261 262 263 265 266 268 269 271 273 274 275 276 277 278 279 279 279 279 278 277 276 274
291 291 291 291 291 291 291 291 291 291 292 292 292 292 292 292 291 291 289 288 286 285 283 282 280 278 276 275 273 272 271 270 268 266 264 262 261 259 257 255 254 252 251 250 249 248 247 246 246 246 246 247 247 249 250 251 252 254 255 256 257 258 259 260 261 262 263 264 266 267 269 271 272 274 275 276 277 278 279 279 280 280 279 279 278 276
290 290 290 290 290 290 290 290 291 291 291 291 291 291 291 291 291 290 289 287 285 284 282 281 279 278 276 275 273 272 271 270 269 267 265 263 261 259 257 256 254 253 251 250 249 248 247 246 245 245 246 246 247 248 250 251 252 254 255 256 257 258 258 259 260 261 262 264 265 267 269 270 272 273 275 276 277 278 279 279 280 280 280 280 279 278
289 289 289 289 289 290 290 290 290 290 290 291 291 291 291 290 290 289 288 287 285 283 281 280 278 277 276 274 273 272 271 270 268 266 264 263 261 259 257 256 254 253 251 250 249 248 247 245 245 245 245 246 247 248 249 251 252 253 255 256 256 257 258 259 260 261 262 264 265 267 268 270 272 273 275 276 277 278 279 279 280 281 281 281 280 279
289 289 289 288 288 289 289 289 290 290 290 290 290 290 290 289 289 288 287 286 285 283 281 279 278 276 275 274 272 271 270 269 267 266 264 262 260 258 257 255 254 252 251 250 249 248 246 245 245 245 245 246 247 248 250 251 252 253 255 256 256 257 258 259 260 261 262 264 265 267 268 270 271 273 274 275 277 278 279 279 280 281 281 282 281 280
288 288 288 288 287 288 288 288 288 289 289 289 289 288 288 288 288 287 287 286 284 283 281 279 278 276 275 273 272 270 269 267 266 264 263 261 259 258 256 255 253 252 251 250 248 247 246 246 246 246 246 247 248 249 250 251 252 253 254 255 257 257 258 259 260 261 262 264 265 267 268 270 271 273 274 275 276 278 279 279 280 281 282 282 282 282
288 287 287 287 287 286 286 287 287 287 287 288 288 287 287 287 287 286 286 285 284 282 281 279 278 276 274 273 271 270 268 267 265 263 262 260 258 257 256 254 253 252 251 249 248 247 247 246 246 247 247 248 249 249 250 251 252 253 254 255 256 257 258 259 260 261 262 264 265 266 268 269 271 272 274 275 276 277 278 279 280 281 282 282 283 282
287 287 286 286 286 285 285 285 285 285 285 286 286 286 285 285 285 285 284 284 283 282 280 279 277 276 274 272 271 269 268 266 264 263 261 260 258 256 255 254 253 252 251 250 249 248 247 247 247 247 248 248 249 250 251 252 253 254 255 256 257 258 259 259 260 261 263 264 265 266 268 269 271 272 273 275 276 277 278 279 280 281 282 282 283 283
286 286 286 286 285 285 284 284 284 283 284 283 284 284 284 284 283 283 283 282 282 281 280 278 277 275 274 272 271 269 268 266 264 263 261 259 258 256 255 253 252 251 251 250 249 248 248 248 248 248 248 249 250 250 251 252 253 254 255 256 257 258 259 260 261 262 263 264 265 266 268 269 270 272 273 274 276 277 278 279 279 280 281 282 283 283
285 285 285 285 284 284 284 283 283 282 282 282 282 282 282 282 282 281 281 281 280 280 279 278 277 275 274 272 270 269 267 266 264 262 261 259 257 256 255 253 252 251 250 250 249 249 249 248 248 249 249 250 250 251 252 253 254 255 256 257 258 258 259 261 262 263 264 265 266 267 268 269 270 272 273 274 275 276 277 278 279 280 281 282 283 283
284 284 284 283 283 283 283 282 282 282 281 281 280 280 280 280 280 280 280 279 279 278 278 277 276 275 273 272 270 269 267 266 264 262 260 259 257 256 254 253 252 251 251 250 250 249 249 249 249 250 250 251 251 252 252 253 254 255 256 257 258 259 260 261 262 263 264 265 266 267 268 269 270 272 273 274 275 276 277 278 279 280 281 282 282 283
283 283 282 282 282 282 281 281 281 281 280 280 280 279 279 279 279 278 278 278 277 277 276 276 275 274 273 272 270 269 267 265 264 262 261 259 257 256 255 253 252 251 251 250 250 250 250 250 250 250 251 251 252 252 253 254 255 256 257 258 259 260 261 262 263 264 265 266 266 267 268 269 270 272 273 274 275 276 277 278 278 279 280 281 282 283
282 281 281 281 281 280 280 280 280 280 279 279 279 278 278 278 277 277 277 276 276 275 275 275 274 273 272 271 270 269 267 266 264 262 261 259 258 257 255 254 253 252 251 251 250 250 250 250 251 251 252 252 253 253 254 255 256 257 258 259 260 261 262 263 263 264 265 266 266 267 268 269 271 272 273 274 275 276 277 277 278 279 280 281 282 283
280 280 280 280 280 279 279 279 279 278 278 278 278 278 277 277 276 276 275 275 274 274 273 273 272 272 271 270 270 268 267 266 265 263 262 260 259 257 256 255 254 253 252 251 251 251 251 251 251 252 252 253 254 254 255 256 257 258 259 260 261 262 262 263 264 264 265 266 266 267 268 269 271 272 273 274 275 276 277 277 278 279 280 281 282 282
279 279 279 279 278 278 278 278 278 277 277 277 277 277 276 276 275 275 274 274 273 272 272 271 271 270 270 269 269 268 267 266 265 264 263 261 260 259 257 256 255 254 253 252 252 251 251 251 252 252 253 254 254 255 256 257 258 258 259 260 261 262 263 263 264 265 265 266 267 268 269 270 271 272 273 275 275 276 277 277 278 279 280 281 282 282
278 278 278 277 277 277 277 277 277 276 276 276 276 275 275 275 275 274 274 273 272 271 270 270 269 269 268 268 268 267 267 266 265 264 263 262 261 260 258 257 256 255 254 253 252 252 252 252 252 253 253 254 255 256 257 257 258 259 260 261 261 262 263 264 264 265 265 266 267 268 269 270 271 272 274 275 275 276 277 277 278 279 280 281 282 282
276 276 276 276 276 276 276 276 275 275 275 275 275 274 274 274 273 273 273 272 272 271 270 269 268 267 267 266 266 266 266 265 265 264 264 263 262 260 259 258 256 255 254 254 253 253 253 253 253 254 254 254 255 256 257 258 258 259 260 261 261 262 263 263 264 265 266 266 267 268 270 271 272 273 274 275 276 276 277 278 278 279 280 281 282 282
Height
10596 10593 10590 10588 10586 10583 10579 10576 10575 10574 10571 10568 10565 10563 10561 10559 10556 10554 10551 10549 10547 10544 10541 10538 10536 10533 10531 10528 10526 10523 10521 10519 10517 10514 10513 10511 10509 10507 10505 10503 10501 10499 10498 10496 10495 10494 10493 10491 10489 10488 10486 10484 10483 10482 10481 10480 10479 10478 10477 10476 10476 10475 10474 10473 10473 10471 10471 10470 10469 10469 10468 10467 10466 10466 10466 10465 10464 10464 10463 10463 10463 10462 10461 10461 10461 10460
10589 10586 10583 10581 10579 10577 10573 10570 10568 10567 10565 10563 10559 10558 10556 10553 10550 10548 10545 10543 10540 10538 10534 10532 10529 10527 10524 10522 10519 10517 10514 10513 10511 10509 10507 10504 10503 10501 10499 10498 10496 10494 10493 10491 10489 10489 10488 10486 10484 10483 10481 10480 10479 10478 10476 10476 10474 10474 10473 10472 10471 10471 10470 10469 10469 10468 10467 10466 10466 10465 10464 10464 10463 10463 10462 10462 10461 10461 10460 10459 10459 10459 10458 10458 10458 10458
10584 10581 10577 10574 10573 10571 10568 10564 10562 10560 10559 10556 10554 10552 10549 10547 10544 10541 10539 10536 10533 10531 10528 10526 10523 10521 10518 10516 10513 10511 10509 10507 10504 10503 10501 10499 10497 10495 10493 10491 10490 10488 10487 10485 10484 10483 10482 10481 10479 10478 10476 10475 10474 10473 10472 10471 10470 10469 10468 10468 10467 10466 10466 10465 10464 10464 10463 10463 10462 10461 10461 10460 10459 10459 10459 10458 10458 10458 10457 10457 10456 10456 10456 10455 10455 10455
10579 10576 10572 10569 10566 10564 10561 10559 10557 10554 10552 10550 10548 10546 10543 10541 10538 10535 10533 10530 10527 10524 10521 10519 10517 10514 10512 10509 10508 10505 10503 10501 10499 10497 10495 10493 10491 10489 10488 10486 10484 10483 10481 10479 10479 10478 10477 10476 10474 10473 10472 10471 10469 10468 10468 10466 10466 10465 10464 10463 10463 10463 10462 10461 10461 10460 10459 10459 10458 10458 10458 10457 10456 10456 10456 10455 10455 10454 10454 10454 10453 10453 10453 10453 10453 10452
10572 10569 10566 10563 10560 10557 10554 10553 10551 10548 10546 10543 10541 10539 10537 10534 10531 10528 10525 10523 10520 10518 10515 10513 10510 10508 10505 10503 10501 10499 10497 10495 10493 10491 10489 10488 10486 10484 10482 10480 10479 10477 10476 10474 10473 10472 10471 10471 10469 10468 10467 10466 10465 10464 10463 10462 10461 10461 10460 10459 10459 10458 10458 10458 10457 10456 10456 10455 10455 10454 10454 10454 10453 10453 10453 10452 10452 10451 10451 10451 10451 10450 10450 10450 10449 10449
10565 10563 10561 10558 10554 10551 10549 10547 10544 10543 10540 10537 10534 10532 10530 10528 10524 10521 10518 10516 10513 10511 10508 10506 10503 10501 10499 10497 10495 10493 10491 10489 10487 10485 10483 10481 10479 10478 10476 10474 10473 10471 10470 10469 10468 10467 10466 10465 10464 10463 10462 10461 10460 10459 10459 10458 10457 10456 10456 10456 10455 10454 10454 10454 10453 10453 10453 10452 10451 10451 10451 10451 10450 10450 10449 10449 10449 10449 10448 10448 10448 10448 10448 10447 10447 10447
10558 10556 10554 10551 10548 10545 10543 10540 10538 10536 10534 10531 10528 10524 10523 10520 10518 10514 10511 10509 10506 10504 10501 10499 10496 10494 10493 10491 10489 10487 10484 10483 10481 10479 10477 10476 10474 10473 10471 10469 10468 10466 10464 10463 10462 10461 10461 10460 10459 10458 10457 10456 10456 10455 10454 10454 10453 10453 10452 10451 10451 10451 10450 10450 10449 10449 10449 10449 10448 10448 10448 10448 10447 10447 10446 10446 10446 10446 10446 10445 10445 10445 10444 10444 10444 10444
10552 10549 10546 10544 10542 10539 10536 10533 10531 10529 10528 10526 10522 10518 10515 10512 10509 10507 10505 10503 10499 10497 10494 10492 10489 10488 10486 10484 10483 10481 10478 10476 10474 10473 10471 10469 10468 10466 10464 10463 10462 10460 10459 10458 10457 10456 10456 10454 10454 10453 10452 10452 10451 10451 10450 10449 10449 10448 10448 10448 10448 10447 10447 10446 10446 10446 10446 10445 10445 10445 10444 10444 10444 10444 10444 10443 10443 10443 10443 10443 10442 10442 10442 10442 10442 10442
10546 10543 10540 10537 10535 10533 10530 10527 10523 10522 10521 10519 10516 10512 10509 10506 10503 10499 10497 10495 10493 10491 10488 10486 10483 10481 10479 10478 10476 10474 10472 10470 10468 10467 10465 10464 10462 10461 10459 10458 10456 10454 10454 10453 10452 10451 10451 10449 10449 10448 10448 10447 10447 10446 10446 10445 10444 10444 10444 10444 10444 10443 10443 10443 10443 10443 10442 10442 10442 10442 10441 10441 10441 10441 10441 10440 10440 10440 10439 10439 10439 10439 10439 10439 10439 10439
10538 10536 10534 10531 10528 10526 10524 10521 10518 10514 10513 10511 10508 10505 10503 10499 10496 10493 10490 10488 10486 10484 10482 10479 10477 10474 10473 10471 10470 10468 10466 10464 10462 10461 10459 10458 10456 10454 10453 10452 10451 10449 10448 10448 10447 10446 10446 10444 10444 10444 10443 10443 10443 10442 10441 10441 10441 10440 10440 10440 10440 10440 10439 10439 10439 10439 10439 10439 10439 10439 10439 10438 10438 10438 10438 10438 10438 10437 10437 10437 10437 10437 10437 10437 10437 10437
10531 10528 10526 10523 10521 10518 10516 10514 10511 10508 10506 10504 10501 10498 10495 10493 10491 10488 10484 10481 10479 10477 10475 10473 10471 10469 10467 10465 10463 10462 10460 10458 10456 10454 10453 10452 10451 10449 10448 10446 10445 10444 10443 10443 10442 10441 10441 10440 10439 10439 10439 10438 10438 10438 10438 10437 10437 10436 10436 10436 10436 10436 10436 10436 10436 10436 10436 10436 10436 10436 10436 10435 10435 10435 10435 10434 10434 10434 10434 10434 10434 10434 10434 10434 10434 10434
10523 10521 10519 10516 10513 10511 10508 10506 10503 10501 10499 10496 10494 10491 10488 10485 10484 10481 10478 10475 10473 10470 10468 10466 10464 10463 10461 10459 10458 10456 10454 10452 10450 10448 10447 10446 10444 10443 10442 10441 10439 10439 10438 10438 10437 10436 10436 10436 10435 10434 10434 10434 10434 10434 10434 10433 10433 10433 10433 10433 10433 10433 10433 10433 10433 10433 10433 10433 10433 10433 10433 10433 10433 10432 10432 10432 10432 10432 10431 10431 10431 10431 10431 10431 10432 10432
10516 10514 10511 10509 10506 10503 10501 10498 10496 10493 10491 10489 10486 10484 10481 10479 10476 10474 10472 10469 10466 10464 10462 10460 10458 10456 10454 10453 10451 10449 10448 10446 10444 10443 10441 10440 10439 10438 10437 10436 10434 10434 10433 10433 10432 10432 10431 10431 10431 10431 10431 10430 10430 10430 10430 10429 10429 10429 10429 10429 10429 10429 10429 10429 10429 10429 10429 10429 10429 10429 10429 10429 10429 10429 10429 10429 10429 10429 10429 10429 10429 10429 10429 10429 10429 10429
10509 10507 10504 10501 10498 10496 10494 10491 10489 10486 10483 10481 10479 10477 10474 10472 10470 10468 10465 10462 10459 10458 10456 10453 10451 10449 10448 10447 10445 10444 10442 10439 10438 10436 10435 10434 10433 10433 10431 10430 10429 10429 10429 10428 10428 10428 10427 10427 10427 10426 10426 10426 10426 10426 10426 10426 10426 10426 10426 10426 10426 10426 10426 10426 10426 10426 10426 10426 10426 10426 10426 10426 10426 10426 10426 10426 10426 10426 10426 10426 10426 10426 10426 10426 10426 10427
10503 10501 10498 10494 10491 10488 10486 10484 10482 10479 10476 10474 10473 10471 10468 10466 10463 10461 10459 10456 10453 10451 10449 10447 10445 10443 10442 10441 10439 10438 10436 10434 10433 10431 10429 10428 10428 10427 10426 10426 10424 10424 10424 10424 10423 10423 10423 10423 10423 10423 10423 10423 10423 10423 10423 10423 10423 10423 10423 10423 10423 10423 10423 10423 10423 10423 10423 10423 10423 10423 10423 10423 10423 10423 10424 10424 10424 10424 10423 10423 10424 10424 10424 10424 10424 10424
10496 10494 10491 10488 10484 10481 10479 10478 10475 10473 10470 10468 10466 10464 10462 10459 10457 10454 10452 10449 10447 10444 10443 10441 10439 10437 10436 10434 10433 10432 10430 10428 10427 10426 10424 10423 10422 10422 10422 10421 10420 10419 10419 10419 10419 10419 10419 10419 10419 10419 10419 10419 10419 10419 10419 10419 10419 10419 10420 10420 10420 10420 10420 10420 10420 10420 10421 10421 10421 10421 10421 10421 10421 10421 10421 10421 10421 10421 10421 10421 10421 10421 10421 10421 10421 10421
10489 10487 10484 10481 10478 10474 10472 10470 10468 10466 10463 10461 10459 10458 10455 10453 10451 10448 10445 10443 10441 10438 10436 10434 10433 10431 10429 10428 10427 10426 10425 10423 10421 10420 10419 10418 10417 10417 10417 10417 10416 10415 10415 10415 10415 10415 10415 10415 10415 10415 10415 10415 10415 10416 10416 10416 10416 10416 10417 10417 10417 10417 10418 10418 10418 10418 10418 10418 10418 10418 10418 10418 10418 10418 10418 10418 10418 10418 10418 10418 10418 10418 10418 10418 10418 10419
10483 10480 10478 10474 10471 10468 10466 10463 10461 10459 10457 10454 10453 10451 10449 10446 10444 10442 10439 10436 10434 10433 10430 10428 10426 10425 10424 10422 10421 10419 10419 10418 10416 10414 10414 10413 10413 10413 10413 10413 10412 10411 10411 10411 10411 10411 10411 10411 10411 10411 10411 10411 10412 10412 10413 10413 10413 10413 10414 10414 10414 10414 10414 10414 10414 10414 10414 10414 10414 10414 10414 10415 10415 10415 10415 10415 10415 10415 10415 10415 10415 10415 10416 10416 10416 10416
10476 10473 10471 10468 10465 10462 10459 10456 10454 10453 10450 10448 10446 10444 10442 10440 10438 10435 10433 10430 10428 10426 10424 10423 10421 10419 10418 10416 10415 10414 10414 10413 10411 10410 10409 10409 10408 10408 10408 10408 10408 10408 10408 10408 10408 10408 10408 10408 10408 10408 10408 10408 10408 10409 10409 10409 10410 10410 10411 10411 10411 10411 10411 10411 10411 10411 10412 10412 10412 10412 10412 10412 10412 10412 10412 10412 10412 10412 10413 10413 10413 10413 10413 10413 10413 10413
10469 10466 10464 10461 10459 10456 10453 10450 10448 10446 10444 10442 10440 10438 10436 10434 10431 10429 10426 10424 10423 10421 10419 10417 10415 10413 10413 10411 10410 10409 10408 10408 10406 10405 10404 10404 10404 10404 10404 10404 10404 10403 10403 10403 10404 10404 10404 10404 10404 10404 10404 10405 10405 10406 10406 10406 10407 10407 10408 10408 10408 10408 10408 10408 10409 10409 10409 10409 10409 10409 10409 10409 10409 10409 10409 10409 10409 10409 10409 10409 10409 10409 10410 10410 10410 10410
10463 10460 10457 10455 10453 10450 10447 10444 10442 10440 10438 10436 10434 10432 10429 10428 10425 10423 10420 10418 10416 10415 10413 10412 10410 10408 10407 10406 10404 10404 10403 10403 10402 10401 10400 10400 10400 10400 10400 10400 10400 10399 10399 10399 10400 10401 10401 10401 10401 10401 10401 10402 10402 10403 10403 10403 10404 10404 10404 10404 10405 10405 10405 10406 10406 10406 10406 10406 10406 10406 10406 10406 10406 10406 10406 10406 10406 10406 10406 10407 10407 10407 10407 10407 10407 10408
10456 10454 10451 10449 10446 10444 10441 10438 10436 10434 10432 10430 10428 10426 10423 10421 10419 10416 10414 10412 10411 10409 10408 10406 10404 10403 10402 10401 10400 10399 10399 10399 10398 10397 10396 10396 10396 10396 10396 10396 10396 10396 10396 10396 10396 10397 10397 10398 10398 10398 10398 10399 10399 10399 10400 10401 10401 10401 10401 10402 10402 10402 10403 10403 10403 10403 10403 10403 10403 10403 10403 10403 10403 10403 10403 10403 10403 10404 10404 10404 10404 10404 10404 10404 10404 10404
10450 10448 10445 10443 10440 10438 10435 10433 10430 10428 10426 10424 10421 10419 10418 10415 10413 10410 10408 10406 10405 10404 10403 10401 10399 10398 10397 10396 10396 10395 10394 10394 10394 10393 10393 10393 10392 10391 10392 10393 10393 10392 10392 10393 10393 10393 10394 10394 10394 10394 10395 10396 10396 10396 10397 10398 10398 10398 10399 10399 10399 10399 10399 10399 10400 10400 10400 10400 10400 10400 10400 10400 10400 10401 10401 10401 10401 10401 10401 10401 10401 10401 10401 10401 10401 10401
10443 10441 10439 10436 10434 10431 10429 10426 10424 10422 10419 10418 10416 10413 10411 10409 10407 10405 10403 10401 10400 10399 10398 10396 10394 10393 10392 10392 10391 10391 10390 10389 10389 10389 10388 10388 10388 10388 10388 10389 10389 10388 10388 10389 10389 10390 10391 10391 10391 10391 10392 10393 10393 10393 10394 10394 10395 10395 10396 10396 10396 10396 10396 10397 10397 10397 10397 10398 10398 10398 10398 10398 10398 10398 10398 10398 10398 10398 10398 10398 10398 10398 10398 10398 10398 10399
10437 10435 10433 10430 10428 10425 10423 10420 10418 10416 10414 10412 10409 10408 10406 10404 10401 10399 10398 10396 10395 10394 10393 10391 10389 10388 10388 10388 10387 10386 10385 10385 10385 10385 10384 10384 10384 10384 10384 10385 10385 10385 10385 10386 10386 10387 10387 10388 10388 10388 10389 10389 10390 10391 10391 10391 10392 10392 10393 10393 10393 10393 10394 10394 10394 10394 10394 10394 10394 10394 10394 10394 10394 10394 10394 10394 10395 10395 10395 10395 10395 10395 10395 10395 10396 10396
10431 10429 10427 10424 10422 10419 10417 10414 10412 10410 10408 10406 10404 10402 10400 10398 10396 10394 10393 10391 10390 10389 10388 10386 10385 10384 10383 10383 10383 10382 10381 10381 10381 10381 10381 10381 10381 10381 10381 10381 10382 10382 10382 10383 10383 10384 10384 10384 10385 10386 10386 10386 10387 10388 10388 10388 10389 10389 10389 10389 10390 10391 10391 10391 10391 10391 10391 10391 10392 10392 10392 10392 10392 10392 10392 10392 10392 10392 10392 10392 10392 10392 10392 10393 10393 10393
10424 10423 10421 10418 10416 10413 10411 10409 10406 10404 10402 10400 10399 10396 10395 10393 10391 10389 10388 10387 10386 10385 10384 10383 10381 10379 10379 10379 10378 10378 10378 10378 10377 10377 10377 10377 10377 10377 10378 10378 10378 10379 10379 10379 10379 10380 10381 10381 10381 10382 10383 10383 10384 10384 10385 10385 10386 10386 10386 10387 10387 10388 10388 10388 10388 10388 10389 10389 10389 10389 10389 10389 10389 10389 10389 10389 10389 10389 10389 10389 10389 10389 10389 10389 10389 10389
10418 10416 10414 10413 10410 10408 10405 10403 10401 10399 10397 10395 10393 10391 10389 10388 10386 10384 10383 10382 10381 10381 10379 10378 10377 10376 10375 10374 10374 10374 10374 10374 10373 10373 10373 10374 10374 10374 10374 10374 10375 10375 10376 10376 10376 10377 10378 10378 10378 10379 10379 10380 10381 10381 10382 10382 10383 10383 10383 10384 10384 10384 10384 10385 10385 10386 10386 10386 10386 10386 10386 10386 10386 10386 10386 10386 10386 10386 10386 10386 10386 10386 10386 10386 10386 10386
10411 10409 10408 10406 10404 10402 10399 10398 10395 10393 10391 10389 10388 10386 10385 10383 10381 10379 10378 10378 10377 10376 10375 10374 10373 10373 10371 10371 10370 10370 10370 10370 10370 10370 10370 10370 10370 10370 10371 10371 10372 10372 10373 10373 10373 10373 10374 10374 10375 10376 10376 10377 10378 10378 10379 10379 10379 10379 10380 10381 10381 10381 10381 10382 10382 10383 10383 10383 10383 10383 10383 10383 10383 10383 10383 10383 10383 10383 10383 10383 10383 10383 10383 10383 10383 10383
10405 10403 10401 10400 10398 10396 10394 10392 10389 10388 10386 10384 10383 10381 10380 10379 10377 10376 10374 10373 10372 10371 10371 10370 10369 10368 10368 10367 10367 10366 10366 10366 10366 10367 10367 10367 10366 10367 10368 10368 10368 10369 10369 10369 10370 10370 10371 10371 10372 10373 10373 10374 10374 10375 10376 10376 10376 10377 10377 10378 10378 10378 10378 10379 10379 10379 10379 10379 10379 10379 10380 10380 10380 10380 10380 10380 10380 10380 10380 10380 10380 10380 10380 10380 10380 10380
10399 10397 10395 10394 10392 10390 10388 10386 10384 10383 10381 10379 10378 10377 10376 10374 10373 10371 10370 10369 10368 10367 10366 10366 10365 10364 10364 10364 10363 10363 10363 10363 10363 10363 10364 10363 10363 10363 10364 10364 10365 10365 10366 10366 10366 10367 10367 10368 10369 10369 10370 10371 10371 10372 10373 10373 10373 10373 10374 10374 10374 10375 10375 10376 10376 10376 10376 10376 10376 10376 10376 10377 10377 10377 10377 10377 10377 10377 10377 10377 10377 10376 10376 10376 10376 10377
10393 10391 10389 10388 10386 10384 10383 10381 10379 10378 10376 10375 10374 10373 10371 10370 10369 10368 10366 10364 10363 10363 10362 10361 10361 10361 10360 10360 10359 10359 10359 10359 10359 10359 10360 10360 10360 10360 10361 10361 10361 10361 10362 10363 10363 10364 10364 10364 10365 10366 10367 10368 10368 10368 10369 10369 10370 10370 10371 10371 10371 10372 10372 10373 10373 10373 10373 10373 10373 10373 10373 10373 10374 10374 10374 10374 10373 10373 10373 10373 10373 10373 10373 10373 10373 10373
10386 10384 10383 10381 10380 10379 10377 10376 10374 10373 10371 10370 10369 10368 10367 10366 10364 10363 10362 10361 10359 10359 10358 10358 10357 10356 10356 10356 10356 10356 10356 10356 10356 10356 10356 10356 10356 10356 10357 10358 10358 10358 10359 10359 10359 10360 10361 10361 10361 10363 10363 10364 10364 10365 10366 10366 10366 10367 10368 10368 10368 10368 10369 10369 10369 10369 10369 10369 10370 10370 10370 10370 10370 10370 10370 10370 10370 10370 10370 10370 10370 10370 10370 10369 10369 10369
10381 10379 10377 10376 10374 10373 10372 10371 10369 10368 10366 10365 10364 10363 10362 10361 10360 10359 10358 10357 10356 10354 10354 10353 10353 10353 10352 10352 10352 10351 10351 10352 10352 10353 10353 10353 10353 10353 10353 10354 10354 10354 10355 10356 10356 10356 10357 10358 10358 10359 10359 10360 10361 10361 10362 10363 10363 10363 10364 10364 10364 10365 10365 10366 10366 10366 10366 10366 10366 10366 10367 10367 10367 10367 10367 10367 10367 10366 10366 10366 10366 10366 10366 10366 10366 10366
10376 10373 10371 10370 10369 10368 10366 10366 10364 10363 10362 10361 10359 10359 10358 10357 10356 10355 10354 10353 10352 10351 10350 10349 10349 10349 10348 10348 10348 10348 10348 10348 10348 10349 10349 10349 10349 10349 10350 10350 10350 10351 10351 10352 10353 10353 10354 10354 10354 10355 10356 10356 10357 10358 10358 10359 10359 10360 10360 10361 10361 10361 10362 10362 10363 10363 10363 10363 10363 10363 10363 10363 10363 10363 10363 10363 10363 10363 10363 10363 10363 10363 10363 10363 10363 10363
10370 10368 10366 10364 10363 10362 10361 10361 10359 10359 10358 10356 10355 10354 10353 10353 10352 10351 10350 10349 10348 10347 10346 10346 10345 10344 10344 10344 10344 10344 10344 10344 10345 10346 10346 10346 10346 10346 10346 10346 10347 10347 10348 10348 10349 10349 10350 10351 10351 10352 10353 10353 10353 10354 10354 10356 10356 10356 10357 10357 10358 10358 10358 10358 10359 10359 10359 10359 10359 10359 10360 10360 10360 10360 10360 10360 10359 10359 10359 10359 10359 10359 10359 10359 10359 10359
10365 10363 10361 10359 10358 10357 10356 10356 10355 10354 10353 10352 10351 10350 10349 10348 10348 10347 10346 10345 10344 10343 10343 10342 10341 10341 10341 10341 10341 10341 10341 10341 10341 10342 10342 10343 10343 10343 10343 10343 10343 10344 10344 10344 10345 10346 10346 10347 10348 10348 10349 10349 10350 10350 10351 10351 10352 10353 10353 10353 10354 10354 10354 10354 10355 10355 10355 10356 10356 10356 10356 10356 10356 10356 10356 10356 10356 10356 10356 10356 10356 10356 10355 10355 10355 10354
10359 10358 10356 10354 10353 10352 10351 10351 10350 10349 10349 10348 10347 10346 10345 10344 10343 10343 10342 10341 10341 10340 10339 10338 10338 10337 10337 10337 10337 10337 10337 10338 10338 10338 10338 10339 10339 10339 10339 10339 10339 10340 10340 10341 10341 10342 10343 10343 10344 10344 10345 10346 10346 10346 10347 10348 10348 10349 10349 10349 10350 10351 10351 10351 10351 10351 10351 10352 10352 10352 10353 10353 10353 10353 10353 10353 10353 10353 10352 10352 10352 10352 10352 10351 10351 10351
10354 10353 10351 10350 10349 10348 10346 10346 10345 10344 10344 10344 10343 10342 10341 10340 10339 10339 10338 10338 10337 10336 10336 10335 10334 10334 10333 10333 10333 10333 10333 10334 10334 10334 10334 10335 10335 10335 10336 10336 10336 10336 10336 10337 10338 10338 10339 10339 10340 10341 10341 10342 10342 10343 10343 10344 10344 10344 10345 10346 10346 10346 10347 10347 10347 10348 10348 10348 10348 10348 10348 10348 10349 10349 10349 10349 10349 10349 10349 10348 10348 10348 10348 10348 10348 10347
10349 10348 10347 10346 10344 10343 10343 10341 10341 10340 10340 10339 10339 10338 10337 10336 10335 10334 10334 10334 10333 10333 10332 10331 10331 10330 10329 10329 10329 10329 10329 10329 10330 10330 10331 10331 10331 10331 10332 10332 10332 10332 10333 10333 10334 10334 10335 10336 10336 10337 10338 10338 10338 10339 10339 10339 10340 10341 10341 10341 10342 10342 10343 10343 10343 10343 10344 10344 10344 10344 10344 10344 10344 10345 10345 10345 10345 10345 10344 10344 10344 10344 10344 10344 10343 10343
10344 10343 10342 10341 10340 10339 10338 10338 10336 10336 10336 10335 10334 10334 10333 10332 10331 10331 10330 10329 10329 10329 10328 10328 10328 10327 10326 10326 10326 10326 10326 10326 10326 10326 10327 10327 10328 10328 10328 10328 10328 10329 10329 10329 10330 10331 10331 10332 10333 10333 10333 10334 10334 10334 10335 10336 10336 10337 10337 10337 10338 10338 10338 10339 10339 10339 10340 10340 10340 10340 10340 10341 10341 10341 10341 10341 10341 10341 10341 10341 10341 10340 10340 10340 10339 10339
10338 10338 10336 10336 10336 10334 10334 10333 10333 10332 10331 10331 10330 10329 10329 10328 10328 10327 10326 10326 10325 10325 10324 10324 10324 10323 10323 10322 10322 10322 10322 10322 10322 10323 10323 10323 10324 10324 10324 10324 10325 10325 10326 10326 10326 10327 10328 10328 10329 10329 10329 10330 10330 10331 10331 10331 10332 10333 10333 10333 10333 10333 10334 10334 10335 10336 10336 10336 10336 10336 10336 10336 10336 10336 10337 10337 10337 10337 10337 10337 10336 10336 10336 10336 10336 10335
10333 10333 10331 10331 10331 10330 10329 10329 10328 10328 10327 10326 10326 10325 10324 10324 10324 10323 10323 10322 10321 10321 10321 10321 10320 10319 10319 10319 10318 10318 10318 10318 10319 10319 10319 10319 10320 10320 10321 10321 10321 10321 10322 10323 10323 10323 10324 10324 10324 10325 10325 10326 10326 10326 10326 10327 10328 10328 10329 10329 10329 10329 10329 10329 10330 10331 10331 10331 10332 10332 10332 10332 10332 10332 10333 10333 10333 10333 10333 10333 10333 10332 10332 10332 10331 10331
10328 10328 10327 10326 10326 10325 10324 10324 10324 10323 10323 10322 10321 10321 10320 10320 10319 10319 10319 10318 10318 10318 10317 10316 10316 10316 10316 10315 10314 10314 10314 10314 10315 10315 10315 10316 10316 10316 10317 10317 10318 10318 10318 10319 10319 10319 10319 10320 10321 10321 10321 10322 10322 10322 10322 10323 10323 10324 10324 10324 10325 10325 10325 10325 10326 10326 10327 10327 10328 10328 10328 10328 10328 10328 10328 10329 10329 10329 10329 10329 10328 10328 10328 10328 10327 10327
10323 10323 10322 10321 10321 10320 10319 10319 10319 10318 10318 10318 10317 10316 10316 10316 10315 10315 10314 10314 10314 10313 10313 10313 10313 10312 10311 10311 10311 10311 10311 10311 10311 10311 10311 10312 10312 10313 10313 10313 10314 10314 10314 10315 10315 10316 10316 10316 10316 10317 10318 10318 10318 10318 10318 10318 10319 10319 10320 10321 10321 10321 10321 10321 10322 10322 10323 10323 10323 10323 10323 10323 10324 10324 10324 10324 10324 10324 10324 10324 10324 10324 10324 10323 10323 10323
10318 10318 10317 10316 10316 10315 10314 10314 10314 10313 10313 10313 10313 10312 10311 10311 10311 10311 10310 10310 10309 10309 10309 10309 10309 10308 10308 10308 10308 10308 10307 10307 10307 10308 10308 10308 10308 10309 10309 10309 10310 10310 10311 10311 10311 10311 10312 10312 10312 10313 10313 10313 10313 10313 10314 10314 10315 10315 10316 10316 10316 10316 10316 10317 10318 10318 10318 10318 10318 10318 10318 10319 10319 10319 10319 10319 10319 10319 10319 10320 10319 10319 10319 10319 10319 10318
10313 10312 10311 10311 10311 10310 10309 10309 10309 10308 10308 10308 10308 10308 10307 10307 10306 10306 10306 10306 10306 10305 10305 10304 10304 10304 10304 10304 10304 10304 10303 10303 10303 10303 10304 10304 10304 10304 10305 10305 10306 10306 10306 10307 10307 10308 10308 10308 10308 10308 10308 10308 10308 10309 10309 10310 10311 10311 10311 10311 10312 10312 10312 10312 10313 10313 10313 10313 10313 10313 10314 10314 10314 10314 10314 10314 10315 10315 10315 10315 10315 10315 10315 10315 10314 10314
10308 10307 10306 10306 10306 10305 10304 10304 10304 10304 10303 10303 10303 10303 10303 10302 10302 10302 10301 10301 10301 10301 10301 10301 10300 10300 10300 10300 10300 10300 10300 10299 10299 10299 10299 10300 10300 10301 10301 10301 10302 10302 10302 10303 10303 10303 10303 10303 10304 10304 10304 10304 10304 10304 10305 10306 10307 10307 10307 10308 10308 10308 10308 10308 10308 10309 10309 10309 10308 10308 10309 10309 10309 10309 10310 10310 10310 10310 10310 10310 10311 10311 10311 10310 10310 10309
10302 10301 10301 10301 10300 10299 10299 10299 10299 10298 10298 10298 10298 10298 10297 10298 10298 10297 10297 10297 10297 10297 10296 10296 10296 10296 10296 10296 10296 10296 10296 10296 10296 10296 10296 10296 10296 10297 10297 10297 10298 10298 10298 10298 10298 10299 10299 10299 10299 10299 10299 10300 10300 10300 10301 10301 10303 10303 10303 10303 10303 10303 10303 10303 10303 10304 10304 10304 10303 10304 10304 10304 10304 10305 10305 10305 10305 10304 10305 10305 10306 10306 10306 10306 10305 10304
10297 10296 10296 10295 10295 10294 10294 10294 10293 10293 10293 10293 10293 10293 10292 10292 10292 10292 10292 10292 10292 10292 10292 10292 10291 10291 10291 10291 10291 10292 10292 10292 10292 10291 10292 10292 10293 10293 10293 10293 10293 10293 10293 10293 10294 10294 10294 10294 10294 10294 10295 10296 10296 10296 10296 10297 10298 10298 10299 10298 10298 10298 10298 10298 10298 10299 10299 10299 10299 10299 10299 10299 10300 10301 10301 10300 10299 10299 10300 10300 10301 10301 10301 10301 10301 10300
10291 10291 10290 10290 10289 10289 10289 10288 10288 10288 10288 10288 10287 10287 10287 10287 10286 10286 10286 10286 10286 10286 10286 10287 10287 10287 10287 10287 10287 10288 10288 10288 10288 10288 10288 10288 10288 10288 10288 10288 10288 10289 10289 10289 10289 10289 10289 10289 10289 10289 10289 10291 10292 10293 10293 10293 10293 10294 10294 10293 10293 10294 10293 10293 10293 10293 10294 10294 10294 10294 10294 10294 10295 10295 10296 10295 10294 10294 10294 10295 10296 10296 10296 10296 10296 10295